Weather History for K1R7 - June, 2014

Change the Weather History Date:

Thursday, June 5, 2014

  Actual Average (KMCB) Record (KMCB)
Temperature  
Mean Temperature 79 °F -  
Max Temperature 87 °F 87 °F 102 °F (2011)
Min Temperature 71 °F 65 °F 56 °F (1954)
Cooling Degree Days 14    
Growing Degree Days 29 (Base 50)    
Moisture  
Dew Point 73 °F    
Average Humidity 87    
Maximum Humidity 100    
Minimum Humidity 62    
Precipitation  
Precipitation 0.00 in - - ()
Sea Level Pressure  
Sea Level Pressure 29.94 in    
Wind  
Wind Speed 4 mph (South)    
Max Wind Speed 10 mph    
Max Gust Speed -    
Averages and records for this station are not official NWS values.
T = Trace of Precipitation, MM = Missing Value Source: NWS Daily Summary

Daily Weather History Graph

Daily Weather History Graph

Search for Another Location

Airport or City:

Trip Planner

Search our weather history database for the weather conditions in past years. The results will help you decide how hot, cold, wet, or windy it might be!

Date:

Astronomy

Jun. 05, 2014 Rise Set
Actual Time 5:56 AM CDT 8:04 PM CDT
Civil Twilight 5:28 AM CDT 8:31 PM CDT
Nautical Twilight 4:54 AM CDT 9:05 PM CDT
Astronomical Twilight 4:18 AM CDT 9:42 PM CDT
Moon 12:52 PM CDT (6/5) 12:50 AM CDT (6/5)
Length of Visible Light 15h 03m
Length of Day
14h 07m
Waxing Crescent, 49% of the Moon is Illuminated
Jun 5
Waxing Crescent
Jun 5
First Quarter
Jun 12
Full
Jun 19
Last Quarter
Jun 27
New

Hourly Weather History & Observations

Time (CDT) Temp. Heat Index Dew Point Humidity Pressure Visibility Wind Dir Wind Speed Gust Speed Precip Events Conditions
12:15 AM 73.4 °F - 71.6 °F 94% 29.94 in - South 5.8 mph - N/A   Clear
12:35 AM 73.4 °F - 71.6 °F 94% 29.94 in - SSE 5.8 mph - N/A   Clear
12:55 AM 73.4 °F - 71.6 °F 94% 29.93 in - South 4.6 mph - N/A   Clear
1:15 AM 73.4 °F - 71.6 °F 94% 29.92 in - South 6.9 mph - N/A   Clear
1:35 AM 73.4 °F - 71.6 °F 94% 29.92 in - South 5.8 mph - N/A   Clear
1:55 AM 73.4 °F - 71.6 °F 94% 29.92 in - SSE 4.6 mph - N/A   Partly Cloudy
2:15 AM 71.6 °F - 71.6 °F 100% 29.93 in - South 3.5 mph - N/A   Scattered Clouds
2:35 AM 71.6 °F - 71.6 °F 100% 29.92 in - SSW 3.5 mph - N/A   Scattered Clouds
2:55 AM 71.6 °F - 71.6 °F 100% 29.94 in - Calm Calm - N/A   Mostly Cloudy
3:15 AM 71.6 °F - 71.6 °F 100% 29.94 in - Calm Calm - N/A   Overcast
3:35 AM 73.4 °F - 73.4 °F 100% 29.94 in - SSE 4.6 mph - N/A   Overcast
3:55 AM 71.6 °F - 71.6 °F 100% 29.95 in - SE 3.5 mph - N/A   Mostly Cloudy
4:15 AM 73.4 °F - 73.4 °F 100% 29.95 in - Calm Calm - N/A   Overcast
4:55 AM 71.6 °F - 71.6 °F 100% 29.96 in - Calm Calm - N/A   Mostly Cloudy
5:15 AM 71.6 °F - 71.6 °F 100% 29.96 in - Calm Calm - N/A   Mostly Cloudy
5:55 AM 71.6 °F - 71.6 °F 100% 29.95 in - Calm Calm - N/A Fog Fog
6:15 AM 71.6 °F - 71.6 °F 100% 29.95 in - Calm Calm - N/A Fog Fog
6:35 AM 71.6 °F - 71.6 °F 100% 29.95 in - Calm Calm - N/A Fog Fog
6:55 AM 71.6 °F - 71.6 °F 100% 29.95 in - Calm Calm - N/A Fog Fog
7:15 AM 71.6 °F - 71.6 °F 100% 29.95 in - Calm Calm - N/A Fog Fog
7:35 AM 71.6 °F - 71.6 °F 100% 29.95 in - SSE 3.5 mph - N/A Fog Fog
7:55 AM 71.6 °F - 71.6 °F 100% 29.95 in - South 3.5 mph - N/A Fog Fog
8:15 AM 71.6 °F - 71.6 °F 100% 29.97 in - South 5.8 mph - N/A   Overcast
8:35 AM 73.4 °F - 73.4 °F 100% 29.96 in - South 5.8 mph - N/A   Overcast
8:55 AM 73.4 °F - 73.4 °F 100% 29.96 in - SSE 6.9 mph - N/A   Overcast
9:15 AM 75.2 °F - 73.4 °F 94% 29.96 in - South 6.9 mph - N/A   Overcast
9:35 AM 75.2 °F - 73.4 °F 94% 29.97 in - SSW 5.8 mph - N/A   Overcast
9:55 AM 75.2 °F - 73.4 °F 94% 29.97 in - South 5.8 mph - N/A   Overcast
10:15 AM 75.2 °F - 73.4 °F 94% 29.96 in - SSE 4.6 mph - N/A   Overcast
10:35 AM 78.8 °F - 73.4 °F 83% 29.97 in - Calm Calm - N/A   Mostly Cloudy
10:55 AM 80.6 °F 85.4 °F 73.4 °F 79% 29.96 in - SSW 3.5 mph - N/A   Scattered Clouds
11:15 AM 80.6 °F 85.4 °F 73.4 °F 79% 29.96 in - Calm Calm - N/A   Mostly Cloudy
11:35 AM 82.4 °F 89.5 °F 75.2 °F 79% 29.95 in - SSE 6.9 mph - N/A   Mostly Cloudy
11:55 AM 82.4 °F 88.2 °F 73.4 °F 74% 29.95 in - SSE 3.5 mph - N/A   Scattered Clouds
12:15 PM 84.2 °F 90.9 °F 73.4 °F 70% 29.96 in - SE 8.1 mph - N/A   Partly Cloudy
12:35 PM 82.4 °F 88.2 °F 73.4 °F 74% 29.96 in - SSE 10.4 mph - N/A   Scattered Clouds
12:55 PM 84.2 °F 90.9 °F 73.4 °F 70% 29.96 in - SSE 6.9 mph - N/A   Scattered Clouds
1:15 PM 86.0 °F 93.4 °F 73.4 °F 66% 29.96 in - South 5.8 mph - N/A   Partly Cloudy
1:35 PM 86.0 °F 93.4 °F 73.4 °F 66% 29.96 in - South 6.9 mph - N/A   Partly Cloudy
1:55 PM 86.0 °F 93.4 °F 73.4 °F 66% 29.97 in - South 5.8 mph - N/A   Clear
2:15 PM 87.8 °F 95.6 °F 73.4 °F 62% 29.96 in - Calm Calm - N/A   Partly Cloudy
2:35 PM 87.8 °F 95.6 °F 73.4 °F 62% 29.96 in - South 4.6 mph - N/A   Scattered Clouds
2:55 PM 87.8 °F 97.6 °F 75.2 °F 66% 29.96 in - SSW 5.8 mph - N/A   Scattered Clouds
3:15 PM 87.8 °F 95.6 °F 73.4 °F 62% 29.94 in - SSW 3.5 mph - N/A   Partly Cloudy
4:55 PM 86.0 °F 93.4 °F 73.4 °F 66% 29.94 in - SSW 6.9 mph - N/A   Mostly Cloudy
5:15 PM 86.0 °F 93.4 °F 73.4 °F 66% 29.94 in - WSW 4.6 mph - N/A   Scattered Clouds
5:35 PM 84.2 °F 92.3 °F 75.2 °F 74% 29.93 in - SW 4.6 mph - N/A   Scattered Clouds
5:55 PM 86.0 °F 93.4 °F 73.4 °F 66% 29.92 in - WSW 4.6 mph - N/A   Scattered Clouds
6:15 PM 84.2 °F 92.3 °F 75.2 °F 74% 29.91 in - South 4.6 mph - N/A   Partly Cloudy
6:35 PM 84.2 °F 92.3 °F 75.2 °F 74% 29.90 in - Calm Calm - N/A   Clear
6:55 PM 84.2 °F 92.3 °F 75.2 °F 74% 29.90 in - South 4.6 mph - N/A   Clear
7:15 PM 84.2 °F 92.3 °F 75.2 °F 74% 29.90 in - Calm Calm - N/A   Clear
7:35 PM 82.4 °F 89.5 °F 75.2 °F 79% 29.91 in - Calm Calm - N/A   Clear
7:55 PM 80.6 °F 86.2 °F 75.2 °F 84% 29.91 in - Calm Calm - N/A   Clear
8:15 PM 78.8 °F - 75.2 °F 89% 29.91 in - Calm Calm - N/A   Clear
8:35 PM 78.8 °F - 75.2 °F 89% 29.90 in - Calm Calm - N/A   Clear
8:55 PM 77.0 °F - 75.2 °F 94% 29.90 in - South 3.5 mph - N/A   Clear
9:35 PM 78.8 °F - 75.2 °F 89% 29.90 in - Calm Calm - N/A   Clear
9:55 PM 77.0 °F - 75.2 °F 94% 29.90 in - South 3.5 mph - N/A   Clear
10:15 PM 77.0 °F - 75.2 °F 94% 29.91 in - Calm Calm - N/A   Clear
10:35 PM 75.2 °F - 73.4 °F 94% 29.92 in - Calm Calm - N/A   Clear
10:55 PM 75.2 °F - 73.4 °F 94% 29.92 in - Calm Calm - N/A   Clear
11:15 PM 73.4 °F - 73.4 °F 100% 29.94 in - Calm Calm - N/A   Clear
11:35 PM 75.2 °F - 73.4 °F 94% 29.94 in - Calm Calm - N/A   Clear
11:55 PM 75.2 °F - 75.2 °F 100% 29.94 in - South 3.5 mph - N/A   Clear